When you browse on this site, cookies collect data to enhance your experience and personalize the content and advertising you see.
Visit our Privacy Policy to learn more. By continuing to use the site, you agree to this use of cookies and data.
  • In Hungary
  • List of Countries
  • For 7 days
  • Water Temperature
  • Satellite Maps
  • Weather Map
  • News
  • Weather Widgets
  • user-avatar
    Login

    Hourly Weather Safaga

    Today, 19 November, Monday

    Time Temperature Precipitation Wind Pressure Humidity
    00:00 +19°C° 0 mm 1 mps 705 mmHg 30%
    01:00 +18°C° 0 mm 1 mps 704 mmHg 30%
    02:00 +18°C° 0 mm 1 mps 704 mmHg 29%
    03:00 +16°C° 0 mm 1 mps 704 mmHg 29%
    04:00 +16°C° 0 mm 1 mps 704 mmHg 29%
    05:00 +16°C° 0 mm 1 mps 704 mmHg 29%
    06:00 +18°C° 0 mm 1 mps 705 mmHg 26%
    07:00 +20°C° 0 mm 1 mps 705 mmHg 23%
    08:00 +21°C° 0 mm 1 mps 706 mmHg 21%
    09:00 +23°C° 0 mm 2 mps 706 mmHg 19%
    10:00 +24°C° 0 mm 2 mps 707 mmHg 18%
    11:00 +25°C° 0 mm 3 mps 707 mmHg 16%
    12:00 +26°C° 0 mm 3 mps 707 mmHg 15%
    13:00 +27°C° 0 mm 3 mps 707 mmHg 14%
    14:00 +27°C° 0 mm 3 mps 706 mmHg 14%
    15:00 +26°C° 0 mm 3 mps 706 mmHg 16%
    16:00 +25°C° 0 mm 3 mps 706 mmHg 17%
    17:00 +24°C° 0 mm 3 mps 706 mmHg 19%
    18:00 +23°C° 0 mm 2 mps 706 mmHg 21%
    19:00 +21°C° 0 mm 2 mps 706 mmHg 24%
    20:00 +19°C° 0 mm 2 mps 706 mmHg 26%
    21:00 +20°C° 0 mm 1 mps 706 mmHg 28%
    22:00 +19°C° 0 mm 1 mps 706 mmHg 29%
    23:00 +19°C° 0 mm 1 mps 706 mmHg 31%

    Tomorrow, 20 November, Tuesday

    Time Temperature Precipitation Wind Pressure Humidity
    00:00 +18°C° 0 mm 1 mps 706 mmHg 31%
    01:00 +16°C° 0 mm 1 mps 706 mmHg 32%
    02:00 +16°C° 0 mm 1 mps 706 mmHg 32%
    03:00 +16°C° 0 mm 1 mps 706 mmHg 32%
    04:00 +15°C° 0 mm 1 mps 706 mmHg 31%
    05:00 +15°C° 0 mm 1 mps 706 mmHg 30%
    06:00 +18°C° 0 mm 1 mps 707 mmHg 27%
    07:00 +20°C° 0 mm 1 mps 707 mmHg 24%
    08:00 +21°C° 0 mm 1 mps 708 mmHg 21%
    09:00 +23°C° 0 mm 2 mps 708 mmHg 20%
    10:00 +24°C° 0 mm 2 mps 709 mmHg 19%
    11:00 +26°C° 0 mm 2 mps 709 mmHg 18%
    12:00 +26°C° 0 mm 3 mps 709 mmHg 18%
    13:00 +27°C° 0 mm 3 mps 709 mmHg 18%
    14:00 +28°C° 0 mm 3 mps 708 mmHg 19%
    15:00 +26°C° 0 mm 3 mps 708 mmHg 22%
    16:00 +25°C° 0 mm 3 mps 708 mmHg 26%
    17:00 +24°C° 0 mm 2 mps 707 mmHg 29%
    18:00 +23°C° 0 mm 2 mps 707 mmHg 32%
    19:00 +21°C° 0 mm 2 mps 707 mmHg 36%
    20:00 +20°C° 0 mm 2 mps 707 mmHg 39%
    21:00 +20°C° 0 mm 2 mps 707 mmHg 40%
    22:00 +20°C° 0 mm 1 mps 707 mmHg 41%
    23:00 +20°C° 0 mm 1 mps 707 mmHg 42%

    Day after tomorrow, 21 November, Wednesday

    Time Temperature Precipitation Wind Pressure Humidity
    00:00 +19°C° 0 mm 1 mps 707 mmHg 40%
    01:00 +19°C° 0 mm 1 mps 706 mmHg 38%
    02:00 +18°C° 0 mm 1 mps 706 mmHg 37%
    03:00 +18°C° 0 mm 1 mps 706 mmHg 35%
    04:00 +18°C° 0 mm 1 mps 706 mmHg 34%
    05:00 +16°C° 0 mm 1 mps 705 mmHg 33%
    06:00 +19°C° 0 mm 1 mps 706 mmHg 29%
    07:00 +21°C° 0 mm 1 mps 707 mmHg 25%
    08:00 +23°C° 0 mm 1 mps 707 mmHg 22%
    09:00 +24°C° 0 mm 1 mps 707 mmHg 21%
    10:00 +25°C° 0 mm 1 mps 707 mmHg 20%
    11:00 +27°C° 0 mm 1 mps 707 mmHg 19%
    12:00 +27°C° 0 mm 1 mps 707 mmHg 19%
    13:00 +28°C° 0 mm 2 mps 706 mmHg 19%
    14:00 +28°C° 0 mm 2 mps 706 mmHg 19%
    15:00 +27°C° 0 mm 2 mps 706 mmHg 22%
    16:00 +26°C° 0 mm 2 mps 705 mmHg 24%
    17:00 +24°C° 0 mm 2 mps 705 mmHg 26%
    18:00 +24°C° 0 mm 2 mps 705 mmHg 30%
    19:00 +23°C° 0 mm 2 mps 705 mmHg 33%
    20:00 +22°C° 0 mm 1 mps 706 mmHg 36%
    21:00 +21°C° 0 mm 1 mps 705 mmHg 39%
    22:00 +20°C° 0 mm 1 mps 705 mmHg 41%
    23:00 +20°C° 0 mm 1 mps 705 mmHg 44%

    22 November, Thursday

    Time Temperature Precipitation Wind Pressure Humidity
    00:00 +20°C° 0 mm 1 mps 705 mmHg 44%
    01:00 +19°C° 0 mm 1 mps 704 mmHg 43%
    02:00 +19°C° 0 mm 1 mps 704 mmHg 43%
    03:00 +19°C° 0 mm 1 mps 704 mmHg 42%
    04:00 +18°C° 0 mm 1 mps 704 mmHg 42%
    05:00 +18°C° 0 mm 1 mps 704 mmHg 41%
    06:00 +19°C° 0 mm 1 mps 704 mmHg 36%
    07:00 +21°C° 0 mm 1 mps 705 mmHg 32%
    08:00 +22°C° 0 mm 1 mps 705 mmHg 27%
    09:00 +24°C° 0 mm 2 mps 705 mmHg 23%
    10:00 +25°C° 0 mm 2 mps 705 mmHg 20%
    11:00 +26°C° 0 mm 3 mps 706 mmHg 16%
    12:00 +27°C° 0 mm 3 mps 705 mmHg 16%
    13:00 +28°C° 0 mm 3 mps 705 mmHg 16%
    14:00 +28°C° 0 mm 3 mps 704 mmHg 16%
    15:00 +27°C° 0 mm 3 mps 704 mmHg 19%
    16:00 +26°C° 0 mm 3 mps 704 mmHg 22%
    17:00 +25°C° 0 mm 2 mps 704 mmHg 25%
    18:00 +24°C° 0 mm 2 mps 704 mmHg 27%
    19:00 +23°C° 0 mm 2 mps 704 mmHg 29%
    20:00 +22°C° 0 mm 1 mps 705 mmHg 32%
    21:00 +21°C° 0 mm 1 mps 705 mmHg 32%
    22:00 +21°C° 0 mm 1 mps 705 mmHg 33%
    23:00 +20°C° 0 mm 1 mps 704 mmHg 33%

    23 November, Friday

    Time Temperature Precipitation Wind Pressure Humidity
    00:00 +20°C° 0 mm 1 mps 704 mmHg 33%
    01:00 +19°C° 0 mm 2 mps 704 mmHg 34%
    02:00 +18°C° 0 mm 2 mps 704 mmHg 34%
    03:00 +18°C° 0 mm 2 mps 704 mmHg 35%
    04:00 +17°C° 0 mm 2 mps 704 mmHg 35%
    05:00 +17°C° 0 mm 2 mps 704 mmHg 36%
    06:00 +18°C° 0 mm 2 mps 704 mmHg 34%
    07:00 +19°C° 0 mm 2 mps 705 mmHg 32%
    08:00 +20°C° 0 mm 2 mps 706 mmHg 29%
    09:00 +21°C° 0 mm 3 mps 706 mmHg 29%
    10:00 +22°C° 0 mm 4 mps 706 mmHg 28%
    11:00 +25°C° 0 mm 5 mps 706 mmHg 28%
    12:00 +24°C° 0 mm 6 mps 706 mmHg 26%
    13:00 +24°C° 0 mm 6 mps 705 mmHg 23%
    14:00 +24°C° 0 mm 6 mps 705 mmHg 21%
    15:00 +23°C° 0 mm 6 mps 705 mmHg 23%
    16:00 +22°C° 0 mm 5 mps 705 mmHg 25%
    17:00 +21°C° 0 mm 5 mps 705 mmHg 27%
    18:00 +20°C° 0 mm 4 mps 705 mmHg 31%
    19:00 +19°C° 0 mm 4 mps 705 mmHg 36%
    20:00 +18°C° 0 mm 3 mps 705 mmHg 40%
    21:00 +17°C° 0 mm 3 mps 705 mmHg 44%
    22:00 +17°C° 0 mm 3 mps 705 mmHg 47%
    23:00 +16°C° 0 mm 2 mps 705 mmHg 51%

    24 November, Saturday

    Time Temperature Precipitation Wind Pressure Humidity
    00:00 +16°C° 0 mm 3 mps 705 mmHg 54%
    01:00 +14°C° 0 mm 3 mps 704 mmHg 57%
    02:00 +14°C° 0 mm 3 mps 704 mmHg 60%
    03:00 +13°C° 0 mm 3 mps 704 mmHg 62%
    04:00 +14°C° 0 mm 2 mps 704 mmHg 64%
    05:00 +14°C° 0 mm 2 mps 704 mmHg 66%
    06:00 +13°C° 0 mm 3 mps 705 mmHg 63%
    07:00 +14°C° 0 mm 3 mps 705 mmHg 61%
    08:00 +16°C° 0 mm 3 mps 706 mmHg 58%
    09:00 +17°C° 0 mm 4 mps 706 mmHg 51%
    10:00 +17°C° 0 mm 5 mps 706 mmHg 44%
    11:00 +20°C° 0 mm 5 mps 706 mmHg 36%
    12:00 +20°C° 0 mm 6 mps 706 mmHg 34%
    13:00 +21°C° 0 mm 6 mps 705 mmHg 32%
    14:00 +21°C° 0 mm 6 mps 705 mmHg 29%
    15:00 +20°C° 0 mm 6 mps 705 mmHg 32%
    16:00 +19°C° 0 mm 5 mps 705 mmHg 35%
    17:00 +19°C° 0 mm 5 mps 705 mmHg 38%
    18:00 +17°C° 0 mm 5 mps 706 mmHg 42%
    19:00 +16°C° 0 mm 5 mps 706 mmHg 46%
    20:00 +15°C° 0 mm 5 mps 706 mmHg 51%
    21:00 +15°C° 0 mm 4 mps 706 mmHg 53%
    22:00 +14°C° 0 mm 3 mps 706 mmHg 56%
    23:00 +14°C° 0 mm 3 mps 705 mmHg 59%
    Show more